sat.trackr.live / text

‹ back to catalog

STARLINK-30089

NORAD 56296 · 2023-056L

PAYLOAD ACTIVE UNKNOWN

§ Identity

Operator
Country
US
Launch date
2023-04-19
Launch site
AFETR
Launch vehicle
Mass (kg)
RCS (m²)

Purposes: comms

External: N2YO · Heavens-Above · Gunter

§ Orbital elements

Epoch: 2026-05-24T23:24:28.219104Z

Period
94.27 min
Inclination
43.0021°
Eccentricity
0.0001324
Mean motion
15.27573284 rev/d
Perigee alt
482.2 km
Apogee alt
484.0 km
Semi-major
6,861.2 km
B*
2.0627e-5
RAAN
98.3119°
Arg perigee
268.0437°
Mean anomaly
92.0263°
Rev number
17,216

§ Raw data

STARLINK-300891 56296U 23056L   26144.97532661  .00000305  00000+0  20627-4 0  99982 56296  43.0021  98.3119 0001324 268.0437  92.0263 15.27573284172164

JSON: /api/v1/satellites/56296 · /tle

For live sub-satellite position, see the globe view (requires WebGL).

§ Visibility from observer

Set your observer location to see the next 7 days of passes ≥ 10°. The values pass through the URL so the page stays shareable.

No JS? Fill the form by hand. The geolocation button needs JavaScript.